• In Germany
  • List of Countries
  • For 7 days
  • Water Temperature
  • Satellite Maps
  • Weather Map
  • Weather Widgets
  • user-avatar
    Login

    Hourly Weather Omagh

    Today, 21 October, Sunday

    Time Temperature Precipitation Wind Pressure Humidity
    00:00 +16°C° 0 mm 3 mps 761 mmHg 95%
    01:00 +15°C° 0.1 mm 4 mps 761 mmHg 95%
    02:00 +15°C° 0.1 mm 4 mps 760 mmHg 95%
    03:00 +15°C° 0.1 mm 4 mps 760 mmHg 95%
    04:00 +14°C° 0.2 mm 4 mps 760 mmHg 94%
    05:00 +14°C° 0.2 mm 4 mps 760 mmHg 94%
    06:00 +13°C° 0 mm 5 mps 760 mmHg 93%
    07:00 +12°C° 0.7 mm 4 mps 761 mmHg 92%
    08:00 +11°C° 0.7 mm 4 mps 762 mmHg 92%
    09:00 +8°C° 0.7 mm 4 mps 762 mmHg 92%
    10:00 +10°C° 0.1 mm 4 mps 763 mmHg 88%
    11:00 +11°C° 0.1 mm 4 mps 763 mmHg 84%
    12:00 +10°C° 0.1 mm 5 mps 764 mmHg 80%
    13:00 +10°C° 0 mm 5 mps 765 mmHg 76%
    14:00 +10°C° 0 mm 5 mps 765 mmHg 73%
    15:00 +10°C° 0 mm 5 mps 766 mmHg 69%
    16:00 +9°C° 0 mm 5 mps 766 mmHg 71%
    17:00 +8°C° 0 mm 4 mps 767 mmHg 73%
    18:00 +7°C° 0 mm 4 mps 767 mmHg 75%
    19:00 +7°C° 0 mm 3 mps 768 mmHg 76%
    20:00 +7°C° 0 mm 3 mps 769 mmHg 77%
    21:00 +7°C° 0 mm 3 mps 770 mmHg 78%
    22:00 +7°C° 0 mm 3 mps 770 mmHg 78%
    23:00 +5°C° 0 mm 3 mps 770 mmHg 78%

    Tomorrow, 22 October, Monday

    Time Temperature Precipitation Wind Pressure Humidity
    00:00 +5°C° 0 mm 3 mps 771 mmHg 77%
    01:00 +5°C° 0 mm 3 mps 771 mmHg 79%
    02:00 +5°C° 0 mm 2 mps 771 mmHg 80%
    03:00 +5°C° 0 mm 2 mps 771 mmHg 81%
    04:00 +5°C° 0 mm 2 mps 772 mmHg 82%
    05:00 +5°C° 0 mm 2 mps 772 mmHg 84%
    06:00 +5°C° 0 mm 2 mps 773 mmHg 85%
    07:00 +6°C° 0 mm 2 mps 773 mmHg 84%
    08:00 +7°C° 0 mm 3 mps 773 mmHg 82%
    09:00 +7°C° 0 mm 3 mps 773 mmHg 80%
    10:00 +7°C° 0 mm 4 mps 773 mmHg 78%
    11:00 +10°C° 0 mm 4 mps 773 mmHg 75%
    12:00 +10°C° 0 mm 5 mps 773 mmHg 72%
    13:00 +10°C° 0 mm 5 mps 773 mmHg 73%
    14:00 +10°C° 0 mm 5 mps 773 mmHg 75%
    15:00 +10°C° 0 mm 6 mps 772 mmHg 76%
    16:00 +9°C° 0 mm 5 mps 772 mmHg 80%
    17:00 +9°C° 0 mm 5 mps 772 mmHg 83%
    18:00 +8°C° 0 mm 5 mps 772 mmHg 87%
    19:00 +8°C° 0 mm 5 mps 772 mmHg 87%
    20:00 +8°C° 0 mm 5 mps 772 mmHg 87%
    21:00 +8°C° 0 mm 5 mps 772 mmHg 88%
    22:00 +8°C° 0 mm 5 mps 771 mmHg 88%
    23:00 +8°C° 0 mm 5 mps 771 mmHg 89%

    Day after tomorrow, 23 October, Tuesday

    Time Temperature Precipitation Wind Pressure Humidity
    00:00 +8°C° 0 mm 5 mps 771 mmHg 90%
    01:00 +8°C° 0 mm 5 mps 770 mmHg 90%
    02:00 +8°C° 0 mm 5 mps 770 mmHg 89%
    03:00 +8°C° 0 mm 5 mps 770 mmHg 89%
    04:00 +8°C° 0 mm 5 mps 770 mmHg 88%
    05:00 +8°C° 0 mm 5 mps 769 mmHg 87%
    06:00 +8°C° 0 mm 5 mps 769 mmHg 86%
    07:00 +8°C° 0 mm 6 mps 769 mmHg 84%
    08:00 +9°C° 0 mm 6 mps 769 mmHg 82%
    09:00 +9°C° 0 mm 6 mps 769 mmHg 79%
    10:00 +10°C° 0 mm 6 mps 769 mmHg 77%
    11:00 +11°C° 0 mm 6 mps 769 mmHg 75%
    12:00 +13°C° 0 mm 6 mps 769 mmHg 72%
    13:00 +13°C° 0 mm 6 mps 769 mmHg 74%
    14:00 +13°C° 0 mm 6 mps 768 mmHg 75%
    15:00 +13°C° 0 mm 5 mps 768 mmHg 77%
    16:00 +12°C° 0 mm 5 mps 768 mmHg 81%
    17:00 +10°C° 0 mm 4 mps 768 mmHg 86%
    18:00 +8°C° 0 mm 4 mps 769 mmHg 91%
    19:00 +8°C° 0 mm 4 mps 769 mmHg 91%
    20:00 +9°C° 0 mm 3 mps 769 mmHg 92%
    21:00 +9°C° 0 mm 3 mps 769 mmHg 92%
    22:00 +9°C° 0 mm 3 mps 769 mmHg 92%
    23:00 +9°C° 0 mm 3 mps 769 mmHg 92%

    24 October, Wednesday

    Time Temperature Precipitation Wind Pressure Humidity
    00:00 +9°C° 0 mm 3 mps 769 mmHg 92%
    01:00 +9°C° 0 mm 3 mps 768 mmHg 92%
    02:00 +9°C° 0 mm 3 mps 768 mmHg 92%
    03:00 +9°C° 0 mm 3 mps 768 mmHg 92%
    04:00 +9°C° 0 mm 3 mps 768 mmHg 92%
    05:00 +9°C° 0 mm 3 mps 768 mmHg 92%
    06:00 +9°C° 0 mm 3 mps 768 mmHg 92%
    07:00 +9°C° 0 mm 3 mps 768 mmHg 90%
    08:00 +9°C° 0 mm 3 mps 768 mmHg 89%
    09:00 +10°C° 0 mm 4 mps 768 mmHg 88%
    10:00 +10°C° 0 mm 3 mps 768 mmHg 86%
    11:00 +11°C° 0 mm 3 mps 768 mmHg 83%
    12:00 +11°C° 0 mm 3 mps 768 mmHg 81%
    13:00 +12°C° 0 mm 3 mps 767 mmHg 80%
    14:00 +12°C° 0 mm 3 mps 767 mmHg 80%
    15:00 +12°C° 0 mm 3 mps 767 mmHg 80%
    16:00 +12°C° 0 mm 2 mps 766 mmHg 85%
    17:00 +9°C° 0 mm 2 mps 766 mmHg 89%
    18:00 +8°C° 0 mm 2 mps 766 mmHg 94%
    19:00 +8°C° 0 mm 2 mps 766 mmHg 94%
    20:00 +8°C° 0 mm 2 mps 766 mmHg 93%
    21:00 +8°C° 0 mm 2 mps 766 mmHg 93%
    22:00 +7°C° 0 mm 2 mps 765 mmHg 93%
    23:00 +7°C° 0 mm 2 mps 765 mmHg 93%

    25 October, Thursday

    Time Temperature Precipitation Wind Pressure Humidity
    00:00 +7°C° 0 mm 2 mps 764 mmHg 93%
    01:00 +7°C° 0 mm 2 mps 764 mmHg 93%
    02:00 +7°C° 0 mm 2 mps 764 mmHg 93%
    03:00 +7°C° 0 mm 2 mps 763 mmHg 93%
    04:00 +7°C° 0 mm 2 mps 763 mmHg 92%
    05:00 +8°C° 0 mm 2 mps 762 mmHg 91%
    06:00 +8°C° 0 mm 2 mps 762 mmHg 91%
    07:00 +8°C° 0 mm 2 mps 762 mmHg 90%
    08:00 +8°C° 0 mm 2 mps 761 mmHg 89%
    09:00 +9°C° 0 mm 2 mps 761 mmHg 88%
    10:00 +9°C° 0 mm 3 mps 761 mmHg 86%
    11:00 +9°C° 0 mm 3 mps 760 mmHg 84%
    12:00 +10°C° 0 mm 3 mps 760 mmHg 82%
    13:00 +10°C° 0.1 mm 3 mps 759 mmHg 83%
    14:00 +10°C° 0.1 mm 3 mps 758 mmHg 84%
    15:00 +10°C° 0.1 mm 3 mps 758 mmHg 85%
    16:00 +9°C° 0.1 mm 3 mps 757 mmHg 86%
    17:00 +9°C° 0.1 mm 3 mps 756 mmHg 88%
    18:00 +9°C° 0.1 mm 3 mps 755 mmHg 89%
    19:00 +8°C° 0.2 mm 4 mps 755 mmHg 90%
    20:00 +7°C° 0.2 mm 4 mps 755 mmHg 91%
    21:00 +7°C° 0.2 mm 4 mps 754 mmHg 92%
    22:00 +7°C° 0.4 mm 4 mps 754 mmHg 90%
    23:00 +6°C° 0.4 mm 5 mps 754 mmHg 88%

    26 October, Friday

    Time Temperature Precipitation Wind Pressure Humidity
    00:00 +6°C° 0.4 mm 5 mps 755 mmHg 86%
    01:00 +5°C° 0.1 mm 5 mps 755 mmHg 85%
    02:00 +5°C° 0.1 mm 5 mps 755 mmHg 85%
    03:00 +4°C° 0.1 mm 4 mps 755 mmHg 84%
    04:00 +4°C° 0 mm 4 mps 755 mmHg 84%
    05:00 +4°C° 0 mm 4 mps 755 mmHg 84%
    06:00 +4°C° 0 mm 4 mps 756 mmHg 84%
    07:00 +4°C° 0 mm 4 mps 756 mmHg 83%
    08:00 +5°C° 0 mm 4 mps 756 mmHg 81%
    09:00 +5°C° 0 mm 4 mps 757 mmHg 80%
    10:00 +6°C° 0.1 mm 5 mps 757 mmHg 76%
    11:00 +7°C° 0.1 mm 5 mps 757 mmHg 71%
    12:00 +7°C° 0.1 mm 6 mps 758 mmHg 66%
    13:00 +7°C° 0.2 mm 6 mps 758 mmHg 68%
    14:00 +5°C° 0.2 mm 6 mps 758 mmHg 70%
    15:00 +5°C° 0.2 mm 6 mps 757 mmHg 71%
    16:00 +4°C° 0.2 mm 6 mps 757 mmHg 74%
    17:00 +3°C° 0.2 mm 6 mps 757 mmHg 76%
    18:00 +2°C° 0.2 mm 6 mps 758 mmHg 78%
    19:00 +2°C° 0.3 mm 6 mps 758 mmHg 77%
    20:00 +2°C° 0.3 mm 6 mps 758 mmHg 77%
    21:00 +2°C° 0.3 mm 6 mps 758 mmHg 76%
    22:00 +2°C° 0.1 mm 6 mps 758 mmHg 76%
    23:00 +1°C° 0.1 mm 6 mps 758 mmHg 75%
    Show more